#timestamp,LO_Frequency,Hit,StdDev 
1547676015.6,286046998.1,N
1547676035.4,286046998.6,N
1547676055.3,286046998.8,N
1547676075.1,286046996.5,N
1547676095.8,286046997.0,N
1547676115.7,286046998.0,N
1547676135.5,286046998.2,N
1547676155.4,286046999.3,N
1547676175.2,286047001.2,N
1547676195.0,286047002.6,N
1547676195.9,286047002.6,N
1547676215.8,286047002.8,N
1547676235.6,286047000.4,N
1547676255.4,286046999.0,N
1547676275.3,286046999.5,N
1547676295.1,286046996.7,N
1547676315.9,286046997.0,N
1547676335.7,286046999.5,N
1547676355.5,286046996.7,N
1547676375.4,286046997.1,N
1547676395.2,286046997.7,N
1547676415.0,286046997.6,N
1547676415.9,286046997.6,N
1547676435.8,286046996.5,N
1547676455.6,286046994.9,N
1547676475.4,286046996.6,N
1547676495.3,286047001.2,N
1547676515.1,286046998.5,N
1547676535.9,286047001.1,N
1547676555.7,286046998.6,N
1547676575.5,286046998.7,N
1547676595.4,286047000.6,N
1547676615.2,286047000.2,N
1547676635.0,286047002.1,N
1547676635.9,286047002.1,N
1547676655.8,286046999.9,N
1547676675.6,286047000.3,N
1547676695.5,286046999.3,N
1547676715.3,286046998.4,N
1547676735.1,286047000.6,N
1547676755.9,286047003.7,N
1547676775.7,286047003.8,N
1547676795.5,286047003.2,N
1547676815.4,286047004.0,N
1547676835.2,286047003.2,N
1547676855.1,286047002.5,N
1547676856.0,286047002.5,N
1547676875.8,286047000.5,N
1547676895.6,286047000.1,N
1547676915.5,286047000.8,N
1547676935.3,286047000.4,N
1547676955.1,286046998.3,N
1547676975.9,286046998.5,N
1547676995.7,286046999.3,N
1547677015.6,286047000.5,N
1547677035.4,286047004.4,N
1547677055.2,286047002.0,N
1547677075.1,286047000.0,N
1547677076.0,286047000.0,N
1547677095.8,286047002.8,N
1547677115.6,286047000.5,N
1547677135.5,286047000.7,N
1547677155.3,286047000.0,N
1547677175.2,286046999.8,N
1547677195.9,286047001.0,N
1547677215.7,286047001.2,N
1547677235.6,286047005.6,Y
1547677255.4,286047004.2,P
1547677275.2,286047002.4,N
1547677295.1,286046999.8,N
1547677296.0,286046999.8,N
1547677315.8,286047001.8,N
1547677335.7,286047001.7,N
1547677355.5,286047002.1,N
1547677375.3,286047002.5,N
1547677395.2,286047002.7,N
1547677415.9,286047002.0,N
1547677435.7,286047001.9,N
1547677455.6,286047004.3,Y
1547677475.4,286047002.5,P
1547677495.2,286047001.4,P
1547677515.1,286047001.3,N
1547677516.0,286047001.3,N
1547677535.8,286047001.7,Y
1547677555.7,286046999.4,P
1547677575.5,286047001.0,N
1547677595.3,286047000.0,N
1547677615.2,286046999.3,N
1547677635.0,286046999.4,N
1547677635.9,286046999.4,N
1547677655.8,286046997.3,Y
1547677675.6,286046997.9,P
1547677695.4,286046995.7,P
1547677715.3,286046996.3,N
1547677735.1,286046994.9,Y
1547677755.8,286046998.1,P
1547677775.7,286046996.8,P
1547677795.5,286046997.2,P
1547677815.4,286046998.8,N
1547677835.2,286046998.3,N
1547677855.0,286047000.7,N
1547677855.9,286047000.7,N
1547677875.8,286046997.4,N
1547677895.6,286046998.8,N
1547677915.4,286046999.3,N
1547677935.3,286046999.4,N
1547677955.1,286046997.0,N
1547677975.8,286046997.3,N
1547677995.7,286046995.3,Y
1547678015.5,286047000.7,P
1547678035.4,286047000.8,N
1547678055.2,286047000.7,N
1547678075.0,286047000.7,N
1547678075.9,286047000.7,N
1547678095.8,286046999.8,N
1547678115.6,286047000.2,N
1547678135.4,286047000.7,N
1547678155.3,286046998.7,N
1547678175.1,286047000.8,N
1547678195.9,286047002.3,N
1547678215.7,286047000.9,N
1547678235.5,286046998.5,N
1547678255.4,286046998.6,N
1547678275.2,286047001.0,N
1547678295.0,286047000.9,N
1547678295.9,286047000.9,N
1547678315.8,286046998.5,N
1547678335.6,286046998.6,N
1547678355.5,286047002.5,N
1547678375.3,286047001.6,N
1547678395.1,286047000.5,N
1547678415.9,286047001.7,N
1547678435.7,286047003.8,Y
1547678455.5,286046999.8,P
1547678475.4,286047002.2,P
1547678495.2,286047004.3,P
1547678515.1,286047003.4,N
1547678516.0,286047003.4,N
1547678535.8,286047004.2,N
1547678555.6,286047000.2,N
1547678575.5,286047000.8,N
1547678595.3,286046996.7,N
1547678615.1,286046996.9,N
1547678635.9,286046996.8,N
1547678655.7,286046999.5,N
1547678675.6,286046996.7,N
1547678695.4,286046998.2,N
1547678715.2,286047000.9,N
1547678735.1,286047002.3,N
1547678736.0,286047002.3,N
1547678755.8,286047001.8,N
1547678775.6,286047001.1,N
1547678795.5,286046998.5,N
1547678815.3,286046996.5,N
1547678835.1,286046999.4,N
1547678855.9,286046999.3,N
1547678875.7,286046999.3,N
1547678895.6,286046998.4,N
1547678915.4,286046999.1,N
1547678935.2,286046996.8,N
1547678955.1,286046997.0,N
1547678956.0,286046997.0,N
1547678975.8,286046999.1,N
1547678995.7,286046998.5,N
1547679015.5,286046999.4,N
1547679035.3,286046999.6,N
1547679055.2,286046996.8,N
1547679075.0,286046997.0,N
1547679075.9,286046997.0,N
1547679095.7,286046999.4,N
1547679115.6,286046996.5,N
1547679135.4,286046999.6,N
1547679155.3,286046999.6,N
1547679175.1,286046996.7,N
1547679176.0,286046996.7,N
1547679195.8,286046998.0,N
1547679215.7,286046997.9,N
1547679235.5,286046999.1,N
1547679255.3,286046997.1,N
1547679275.2,286046995.3,Y
1547679295.0,286046996.5,P
1547679295.9,286046996.5,P
1547679315.8,286046999.2,N
1547679335.6,286046999.2,N
1547679355.4,286046999.3,N
1547679375.3,286046998.8,N
1547679395.1,286046999.3,N
1547679415.8,286046997.1,N
1547679435.7,286046996.9,N
1547679455.5,286046997.5,N
1547679475.4,286046996.9,N
1547679495.2,286046996.5,Y
1547679515.0,286046999.7,P
1547679515.9,286046999.7,N
1547679535.8,286047001.5,N
1547679555.6,286047004.1,Y
1547679575.4,286047001.8,P
1547679595.3,286047004.4,P
